Flag for U.S.A. Weather past 2 weeks in Youngstown, Ohio, U.S.A.

Now
80 °F

Light rain. Mostly cloudy.


Feels Like: 83 °F
Forecast: 66 / 85 °F
Wind: 15 mph from Southwest

Location: Youngstown-Warren Regional Airport

Current Time: Jul 7, 2015 at 2:54:13 PM

Latest Report: Jul 7, 2015 at 1:51 PM


Visibility: 5 mi

Pressure: 29.91 "Hg

Humidity: 71%

Dew point: 70 °F

Location of YoungstownLocation

Historic Weather in Youngstown — Graph

°F

Youngstown temperature yesterday

Maximum temperature yesterday: 82 °F (at 11:51 AM)
Minimum temperature yesterday: 64 °F (at 2:51 AM)
Average temperature yesterday: 72 °F

Past Weeks' High & Low Weather Summary

 TemperatureHumidityPressure
High84 °F (Jun 22, 3:51 PM)100% (Jun 24, 6:51 AM)30.16 "Hg (Jun 24, 6:51 AM)
Low51 °F (Jul 3, 4:51 AM)33% (Jun 24, 4:51 PM)29.56 "Hg (Jun 28, 4:51 AM)
Average67 °F78%29.93 "Hg
* Reported Jun 22 1:51 PM — Jul 7 1:51 PM, Youngstown, Weather by CustomWeather, © 2015

Note: Actual official high and low records may vary slightly from our data, if they occured in-between our weather recording intervals... More about our weather records

Advertising

Youngstown weather history for previous 24 hours

 ConditionsComfort  
Time TempWeatherWind HumidityBarometerVisibility
1:51 PM
Tue, Jul 7
80 °FLight rain. Mostly cloudy.15 mph71%29.91 "Hg5 mi
12:51 PM83 °FMostly cloudy.13 mph65%29.93 "Hg7 mi
11:51 AM81 °FPartly sunny.10 mph72%29.95 "Hg7 mi
10:51 AM79 °FPartly sunny.10 mph74%29.96 "Hg7 mi
9:51 AM76 °FPassing clouds.10 mph80%29.97 "Hg7 mi
8:51 AM73 °FFog.8 mph84%29.98 "Hg6 mi
7:51 AM69 °FFog.8 mph87%29.98 "Hg5 mi
6:51 AM67 °FFog.6 mph90%29.98 "Hg5 mi
5:51 AM67 °FPassing clouds.7 mph90%29.98 "Hg7 mi
4:51 AM67 °FFog.6 mph93%29.97 "Hg6 mi
3:51 AM68 °FFog.6 mph93%29.97 "Hg6 mi
2:51 AM69 °FPassing clouds.7 mph93%29.97 "Hg7 mi
1:51 AM69 °FPartly cloudy.7 mph93%29.98 "Hg7 mi
12:51 AM69 °FPassing clouds.6 mph93%29.98 "Hg10 mi
11:51 PM
Mon, Jul 6
70 °FFog.7 mph97%29.98 "Hg6 mi
10:51 PM69 °FFog.3 mph93%30.00 "Hg10 mi
9:51 PM67 °FFog.5 mph100%29.98 "Hg10 mi
8:51 PM73 °FPartly sunny.No wind90%29.98 "Hg10 mi
7:51 PM76 °FPartly sunny.3 mph80%30.00 "Hg10 mi
6:51 PM73 °FLight rain. Fog.3 mph88%30.00 "Hg6 mi
5:51 PM74 °FThunderstorms. Partly sunny.7 mph79%30.02 "Hg10 mi
4:51 PM77 °FThunderstorms. Partly sunny.6 mph71%30.02 "Hg10 mi
3:51 PM78 °FThunderstorms. Broken clouds.5 mph71%30.02 "Hg10 mi
2:51 PM82 °FBroken clouds.10 mph63%30.01 "Hg10 mi
Weather by CustomWeather, © 2015

See weather overviewHow to use our weather pages